Location: Arleux
(50.3632°N, 2.8721°E)
Time: 23:24:40
(UTC+00:00)

N. Korean satellite - Pass Details

Date: 14 March 2021
Orbit: 453 x 499 km, 97.2° (Epoch: 12 April)

Event Time Altitude Azimuth Distance (km) Brightness Sun altitude
Rises 05:08:08 0° 16° (NNE) 2,561 10.6 -9.8°
Reaches altitude 10° 05:10:13 10° 20° (NNE) 1,683 9.7 -9.4°
Maximum altitude 05:13:48 59° 101° (E) 572 7.3 -8.9°
Drops below altitude 10° 05:17:24 10° 182° (S) 1,690 9.2 -8.3°
Sets 05:19:30 0° 186° (S) 2,572 10.1 -8.0°
